COSMOS 1553

导读

COSMOS 1553是苏联(CIS前身)于1984年5月17日发射的“宇宙”系列卫星,隶属于冷战时期苏联保密的军事航天项目。作为“宇宙”系列批量发射的军用卫星,该卫星大概率承担电子侦察、光学成像或军事技术试验任务,这类卫星是苏联太空军事化的重要组成部分,运行在近地轨道,为苏联掌握外军动态、验证航天技术提供支持,该系列多数任务细节至今未完全公开。

基本信息
目录编号:
14973
目录名称:
COSMOS 1553
国际标识:
1984-046A
轨道中心:
EARTH
卫星名称:
COSMOS 1553
卫星全名:
--
卫星状态:
在轨 (已飞行15460 天)
发射日期:
1984-05-17 UTC
国别 :
俄罗斯(独联体) (CIS)
星等 :
--
该卫星已列入 空间交会检测服务 Space Conjunction Data Service (SCDS) ,当前飞行风险评估等级: 无高风险
轨道信息
数据来源 国际轨道数据 AOE轨道数据
星历时间 2026-09-13T16:02:17+0800
17小时前
查看轨道信息
2026-09-13T02:00:00+0800
1天前
查看轨道信息
半长轴 7357.569km 7357.569km
偏心率 0.003301 0.0032918
轨道倾角 82.939° 82.939°
近地点辐角 29.248° 31.307°
升交点赤经 186.761° 187.194°
平近点角 85.968° 68.851°
近地点 955.144km 955.212km
远地点 1003.72km 1003.652km
周期 104.679分钟 104.679分钟
每日圈数 13.756289 13.756288
详细信息
使用方式:
暂无
2D轨道图
3D轨道图
轨道高度分析图
轨道倾角分析图
轨道综合分析图
查看轨道综合分析图
与全量物体交会距离演化趋势
与全量物体交会风险概率演化趋势